Elko, NV

7:58 AM PST on February 20, 2018 (GMT -0800)
Elko Regional

Weather History for KEKO - October, 2013

Change the Weather History Date:

Monday, October 28, 2013

  Actual Average Record
Temperature  
Mean Temperature 39 °F 42 °F  
Max Temperature 45 °F 59 °F 77 °F (1968)
Min Temperature 32 °F 26 °F 7 °F (1895)
Degree Days  
Heating Degree Days 26 23  
Month to date heating degree days 520 500  
Since 1 July heating degree days 693 758  
Cooling Degree Days 0 0  
Month to date cooling degree days 0 0  
Year to date cooling degree days 776 383  
Moisture  
Dew Point 33 °F    
Average Humidity 77    
Maximum Humidity 96    
Minimum Humidity 58    
Precipitation  
Precipitation 0.19 in 0.03 in 0.65 in (2016)
Month to date precipitation 0.32 0.66  
Year to date precipitation 5.17 7.51  
Snow  
Snow 0.60 in 0.10 in 1.00 in (1946)
Month to date snowfall 0.6 0.5  
Since 1 July snowfall 0.6 0.6  
Since 1 September snowfall 0.6 0.6  
Snow Depth 0.00 in    
Sea Level Pressure  
Sea Level Pressure 29.51 in    
Wind  
Wind Speed 7 mph (SW)    
Max Wind Speed 21 mph    
Max Gust Speed 25 mph    
Visibility 8 miles    
Events Rain , Snow    
T = Trace of Precipitation, MM = Missing Value Source: NWS Daily Summary

Daily Weather History Graph

Daily Weather History Graph

Search for Another Location

Airport or City:

Trip Planner

Search our weather history database for the weather conditions in past years. The results will help you decide how hot, cold, wet, or windy it might be!

Date:

Astronomy

Oct. 28, 2013 Rise Set
Actual Time 7:09 AM PDT 5:43 PM PDT
Civil Twilight 6:41 AM PDT 6:12 PM PDT
Nautical Twilight 6:08 AM PDT 6:44 PM PDT
Astronomical Twilight 5:37 AM PDT 7:16 PM PDT
Moon 1:04 AM PDT (10/28) 2:30 PM PDT (10/28)
Length of Visible Light 11h 30m
Length of Day
10h 34m
Waning Crescent, 33% of the Moon is Illuminated
Oct 28
Waning Crescent
Nov 3
New
Nov 9
First Quarter
Nov 17
Full
Nov 25
Last Quarter

Hourly Weather History & Observations

Time (PDT) Temp. Windchill Dew Point Humidity Pressure Visibility Wind Dir Wind Speed Gust Speed Precip Events Conditions
12:56 AM 41.0 °F 38.0 °F 37.9 °F 89% 29.44 in 10.0 mi SE 4.6 mph - 0.00 in   Scattered Clouds
1:56 AM 41.0 °F - 37.9 °F 89% 29.39 in 10.0 mi Calm Calm - N/A   Overcast
2:56 AM 39.0 °F 35.7 °F 37.0 °F 93% 29.37 in 9.0 mi NE 4.6 mph - N/A   Scattered Clouds
3:56 AM 39.9 °F 36.7 °F 37.0 °F 89% 29.33 in 10.0 mi East 4.6 mph - N/A   Mostly Cloudy
4:56 AM 39.9 °F 33.4 °F 36.0 °F 86% 29.35 in 10.0 mi WSW 10.4 mph - N/A   Overcast
5:56 AM 41.0 °F 34.3 °F 36.0 °F 82% 29.38 in 8.0 mi WSW 11.5 mph 18.4 mph 0.01 in Rain Light Rain
6:15 AM 39.2 °F 33.6 °F 37.4 °F 93% 29.45 in 7.0 mi SW 8.1 mph - 0.01 in Rain Light Rain
6:56 AM 37.0 °F 28.1 °F 34.0 °F 89% 29.40 in 8.0 mi WSW 15.0 mph - 0.06 in Rain Rain
7:14 AM 35.6 °F 26.6 °F 33.8 °F 93% 29.47 in 7.0 mi SW 13.8 mph - 0.02 in Rain Light Rain
7:21 AM 35.6 °F 27.1 °F 32.0 °F 87% 29.48 in 6.0 mi SW 12.7 mph - 0.03 in Snow Light Snow
7:28 AM 33.8 °F 25.3 °F 32.0 °F 93% 29.48 in 4.0 mi SW 11.5 mph - 0.04 in Snow Light Snow
7:33 AM 33.8 °F 25.8 °F 32.0 °F 93% 29.48 in 2.0 mi SW 10.4 mph - 0.04 in Snow Light Snow
7:41 AM 33.8 °F 27.0 °F 32.0 °F 93% 29.49 in 1.5 mi SW 8.1 mph - 0.05 in Snow Light Snow
7:56 AM 33.1 °F 25.5 °F 30.9 °F 92% 29.44 in 1.0 mi SW 9.2 mph - 0.07 in Snow Light Snow
8:04 AM 33.8 °F 26.4 °F 30.2 °F 87% 29.50 in 0.8 mi SW 9.2 mph - 0.01 in Snow Light Snow
8:15 AM 33.8 °F 27.0 °F 30.2 °F 87% 29.50 in 0.8 mi SSW 8.1 mph - 0.02 in Snow Light Snow
8:20 AM 33.8 °F 27.0 °F 32.0 °F 93% 29.50 in 1.0 mi SSW 8.1 mph - 0.02 in Snow Light Snow
8:33 AM 33.8 °F 27.0 °F 32.0 °F 93% 29.50 in 3.0 mi SW 8.1 mph - 0.03 in Snow Light Snow
8:56 AM 33.1 °F 26.9 °F 32.0 °F 96% 29.47 in 6.0 mi SSW 6.9 mph - 0.04 in Snow Light Snow
9:49 AM 35.6 °F 29.9 °F 33.8 °F 93% 29.51 in 10.0 mi SSW 6.9 mph - 0.01 in   Overcast
9:56 AM 36.0 °F 29.0 °F 34.0 °F 93% 29.48 in 10.0 mi SW 9.2 mph - 0.01 in   Overcast
10:10 AM 37.4 °F 31.4 °F 33.8 °F 87% 29.51 in 10.0 mi WSW 8.1 mph - N/A   Overcast
10:30 AM 37.4 °F 31.4 °F 33.8 °F 87% 29.52 in 10.0 mi WSW 8.1 mph - N/A   Overcast
10:56 AM 37.9 °F 31.5 °F 35.1 °F 89% 29.50 in 10.0 mi SSW 9.2 mph - N/A   Overcast
11:56 AM 39.0 °F 35.7 °F 35.1 °F 86% 29.51 in 10.0 mi SSW 4.6 mph - N/A   Overcast
12:03 PM 39.2 °F 34.2 °F 33.8 °F 81% 29.53 in 10.0 mi South 6.9 mph - N/A   Overcast
12:49 PM 39.2 °F 32.0 °F 33.8 °F 81% 29.54 in 10.0 mi South 11.5 mph - N/A   Overcast
12:56 PM 39.9 °F 33.4 °F 34.0 °F 79% 29.52 in 10.0 mi South 10.4 mph - N/A   Overcast
1:56 PM 37.9 °F 28.9 °F 34.0 °F 86% 29.52 in 10.0 mi WSW 16.1 mph 25.3 mph 0.00 in Rain Light Rain
2:56 PM 42.1 °F 37.7 °F 34.0 °F 73% 29.54 in 10.0 mi SW 6.9 mph - 0.00 in   Scattered Clouds
3:56 PM 44.1 °F 38.1 °F 30.9 °F 60% 29.54 in 10.0 mi SSW 11.5 mph - N/A   Mostly Cloudy
4:56 PM 42.1 °F 36.6 °F 30.9 °F 65% 29.56 in 10.0 mi SW 9.2 mph - N/A   Mostly Cloudy
5:56 PM 41.0 °F - 30.9 °F 67% 29.59 in 10.0 mi Calm Calm - N/A   Overcast
6:56 PM 37.9 °F 34.4 °F 30.9 °F 76% 29.64 in 10.0 mi WSW 4.6 mph - N/A   Mostly Cloudy
7:56 PM 39.0 °F 35.7 °F 30.9 °F 73% 29.66 in 10.0 mi WSW 4.6 mph - N/A   Overcast
8:56 PM 36.0 °F - 30.9 °F 82% 29.69 in 10.0 mi Calm Calm - N/A   Mostly Cloudy
9:56 PM 36.0 °F 33.3 °F 28.9 °F 76% 29.70 in 10.0 mi WSW 3.5 mph - N/A   Clear
10:56 PM 37.0 °F 32.4 °F 30.0 °F 76% 29.71 in 10.0 mi Variable 5.8 mph - N/A   Overcast
11:56 PM 37.0 °F 31.0 °F 30.0 °F 76% 29.73 in 10.0 mi WSW 8.1 mph - N/A   Overcast